Simultaneous Nadir Overpasses (SNOs) Predictions

Prediction of SNOs between GOES-14 and NOAA-20 Satellite Orbit:

Table of predicted SNOs for the next 14.0 days since TLE Epoch: 4/23/2022
Index Date Time (GOES-14) GOES-14 Lat,Lon NOAA-20 Lat,Lon Distance(km) Time Diff (sec)
1 04/23/2022 08:24:28 0.12,-104.46 0.27,-105.02 64.78 80
2 04/24/2022 08:08:24 0.13,-104.46 -0.79,-100.50 452.67 80
3 04/25/2022 20:30:22 -0.12,-104.53 -0.38,-105.80 144.52 80
4 04/26/2022 20:08:57 -0.13,-104.52 0.62,-101.27 371.52 80
5 04/28/2022 08:30:46 0.11,-104.45 0.56,-106.53 236.96 80
6 04/29/2022 08:14:41 0.12,-104.46 -0.44,-102.00 280.89 80
7 04/30/2022 20:36:38 -0.10,-104.56 -0.72,-107.31 312.94 80
8 05/01/2022 20:15:14 -0.11,-104.56 0.28,-102.77 203.24 80
9 05/03/2022 08:37:02 0.09,-104.46 0.90,-108.04 408.27 80
10 05/04/2022 08:20:58 0.09,-104.47 -0.11,-103.51 109.44 80
11 05/05/2022 20:42:55 -0.07,-104.59 -1.04,-108.81 481.82 80
12 05/06/2022 20:21:31 -0.09,-104.59 -0.04,-104.28 34.42 80
